When you browse on this site, cookies collect data to enhance your experience and personalize the content and advertising you see.
Visit our Privacy Policy to learn more. By continuing to use the site, you agree to this use of cookies and data.
  • In Portugal
  • List of Countries
  • For 7 days
  • Water Temperature
  • Satellite Maps
  • Weather Map
  • Weather Widgets
  • user-avatar
    Login

    Hourly Weather Kipungo

    Today, 17 January, Thursday

    Time Temperature Precipitation Wind Pressure Humidity
    00:00 +18°C° 0 mm 1 mps 652 mmHg 73%
    01:00 +18°C° 0 mm 1 mps 653 mmHg 69%
    02:00 +19°C° 0 mm 1 mps 653 mmHg 68%
    03:00 +19°C° 0 mm 1 mps 653 mmHg 67%
    04:00 +17°C° 0 mm 0 mps 653 mmHg 65%
    05:00 +19°C° 0 mm 1 mps 653 mmHg 64%
    06:00 +20°C° 0 mm 1 mps 653 mmHg 63%
    07:00 +20°C° 0 mm 1 mps 653 mmHg 62%
    08:00 +21°C° 0 mm 1 mps 654 mmHg 58%
    09:00 +22°C° 0 mm 1 mps 654 mmHg 54%
    10:00 +23°C° 0 mm 1 mps 654 mmHg 50%
    11:00 +25°C° 0 mm 2 mps 654 mmHg 45%
    12:00 +27°C° 0 mm 2 mps 654 mmHg 40%
    13:00 +28°C° 0 mm 2 mps 654 mmHg 35%
    14:00 +29°C° 0 mm 2 mps 653 mmHg 34%
    15:00 +30°C° 0 mm 2 mps 653 mmHg 34%
    16:00 +30°C° 0 mm 2 mps 653 mmHg 33%
    17:00 +29°C° 0 mm 2 mps 653 mmHg 38%
    18:00 +27°C° 0 mm 2 mps 652 mmHg 43%
    19:00 +25°C° 0 mm 2 mps 652 mmHg 48%
    20:00 +24°C° 0 mm 2 mps 652 mmHg 51%
    21:00 +21°C° 0 mm 2 mps 653 mmHg 53%
    22:00 +20°C° 0 mm 2 mps 653 mmHg 56%
    23:00 +20°C° 0 mm 2 mps 653 mmHg 57%

    Tomorrow, 18 January, Friday

    Time Temperature Precipitation Wind Pressure Humidity
    00:00 +19°C° 0 mm 2 mps 653 mmHg 58%
    01:00 +18°C° 0 mm 2 mps 653 mmHg 59%
    02:00 +18°C° 0 mm 2 mps 652 mmHg 61%
    03:00 +18°C° 0 mm 2 mps 652 mmHg 62%
    04:00 +18°C° 0 mm 1 mps 652 mmHg 63%
    05:00 +18°C° 0 mm 2 mps 652 mmHg 60%
    06:00 +19°C° 0 mm 2 mps 653 mmHg 58%
    07:00 +19°C° 0 mm 2 mps 653 mmHg 55%
    08:00 +24°C° 0 mm 2 mps 654 mmHg 47%
    09:00 +27°C° 0 mm 1 mps 655 mmHg 38%
    10:00 +31°C° 0 mm 1 mps 656 mmHg 30%
    11:00 +32°C° 0 mm 1 mps 656 mmHg 29%
    12:00 +34°C° 0 mm 1 mps 655 mmHg 27%
    13:00 +35°C° 0 mm 1 mps 655 mmHg 25%
    14:00 +35°C° 0 mm 2 mps 654 mmHg 28%
    15:00 +32°C° 0 mm 2 mps 653 mmHg 31%
    16:00 +30°C° 0 mm 2 mps 652 mmHg 34%
    17:00 +29°C° 0 mm 2 mps 652 mmHg 36%
    18:00 +28°C° 0 mm 2 mps 652 mmHg 38%
    19:00 +27°C° 0 mm 1 mps 653 mmHg 40%
    20:00 +26°C° 0 mm 2 mps 653 mmHg 42%
    21:00 +25°C° 0 mm 2 mps 654 mmHg 44%
    22:00 +24°C° 0 mm 2 mps 654 mmHg 46%
    23:00 +23°C° 0 mm 2 mps 654 mmHg 48%

    Day after tomorrow, 19 January, Saturday

    Time Temperature Precipitation Wind Pressure Humidity
    00:00 +21°C° 0 mm 2 mps 654 mmHg 51%
    01:00 +20°C° 0 mm 2 mps 653 mmHg 53%
    02:00 +20°C° 0 mm 2 mps 653 mmHg 54%
    03:00 +20°C° 0 mm 2 mps 653 mmHg 55%
    04:00 +19°C° 0 mm 3 mps 653 mmHg 56%
    05:00 +20°C° 0 mm 2 mps 653 mmHg 54%
    06:00 +20°C° 0 mm 2 mps 654 mmHg 52%
    07:00 +20°C° 0 mm 2 mps 654 mmHg 49%
    08:00 +24°C° 0 mm 2 mps 655 mmHg 44%
    09:00 +26°C° 0 mm 2 mps 655 mmHg 38%
    10:00 +28°C° 0 mm 2 mps 656 mmHg 32%
    11:00 +29°C° 0 mm 2 mps 655 mmHg 34%
    12:00 +29°C° 0 mm 2 mps 655 mmHg 35%
    13:00 +30°C° 0 mm 3 mps 654 mmHg 36%
    14:00 +30°C° 0 mm 3 mps 654 mmHg 36%
    15:00 +31°C° 0 mm 3 mps 654 mmHg 36%
    16:00 +31°C° 0 mm 3 mps 653 mmHg 35%
    17:00 +29°C° 0 mm 3 mps 653 mmHg 40%
    18:00 +27°C° 0 mm 2 mps 653 mmHg 46%
    19:00 +26°C° 0 mm 2 mps 653 mmHg 51%
    20:00 +25°C° 0 mm 2 mps 653 mmHg 54%
    21:00 +24°C° 0 mm 2 mps 653 mmHg 58%
    22:00 +22°C° 0 mm 3 mps 654 mmHg 61%
    23:00 +22°C° 0 mm 3 mps 654 mmHg 63%

    20 January, Sunday

    Time Temperature Precipitation Wind Pressure Humidity
    00:00 +21°C° 0 mm 3 mps 653 mmHg 66%
    01:00 +21°C° 0 mm 3 mps 653 mmHg 68%
    02:00 +20°C° 0 mm 2 mps 653 mmHg 72%
    03:00 +20°C° 0 mm 1 mps 653 mmHg 76%
    04:00 +20°C° 0 mm 1 mps 653 mmHg 80%
    05:00 +20°C° 0 mm 1 mps 653 mmHg 78%
    06:00 +20°C° 0 mm 1 mps 654 mmHg 77%
    07:00 +21°C° 0 mm 1 mps 654 mmHg 76%
    08:00 +23°C° 0 mm 1 mps 655 mmHg 65%
    09:00 +26°C° 0 mm 1 mps 656 mmHg 54%
    10:00 +29°C° 0 mm 1 mps 656 mmHg 43%
    11:00 +32°C° 0 mm 1 mps 656 mmHg 37%
    12:00 +34°C° 0 mm 1 mps 656 mmHg 31%
    13:00 +37°C° 0 mm 1 mps 657 mmHg 26%
    14:00 +35°C° 0 mm 1 mps 656 mmHg 28%
    15:00 +33°C° 0 mm 1 mps 655 mmHg 31%
    16:00 +32°C° 0 mm 1 mps 654 mmHg 34%
    17:00 +30°C° 0 mm 2 mps 654 mmHg 38%
    18:00 +29°C° 0 mm 2 mps 654 mmHg 42%
    19:00 +27°C° 0 mm 3 mps 654 mmHg 47%
    20:00 +26°C° 0 mm 3 mps 654 mmHg 51%
    21:00 +25°C° 0 mm 3 mps 655 mmHg 55%
    22:00 +24°C° 0 mm 3 mps 655 mmHg 59%
    23:00 +23°C° 0 mm 2 mps 655 mmHg 63%

    21 January, Monday

    Time Temperature Precipitation Wind Pressure Humidity
    00:00 +21°C° 0 mm 2 mps 655 mmHg 67%
    01:00 +21°C° 0 mm 2 mps 654 mmHg 71%
    02:00 +20°C° 0 mm 2 mps 654 mmHg 75%
    03:00 +20°C° 0 mm 2 mps 654 mmHg 78%
    04:00 +19°C° 0 mm 2 mps 653 mmHg 81%
    05:00 +20°C° 0 mm 1 mps 654 mmHg 80%
    06:00 +21°C° 0 mm 1 mps 654 mmHg 78%
    07:00 +21°C° 0 mm 1 mps 655 mmHg 76%
    08:00 +24°C° 0 mm 1 mps 656 mmHg 64%
    09:00 +27°C° 0 mm 1 mps 656 mmHg 52%
    10:00 +30°C° 0 mm 1 mps 657 mmHg 40%
    11:00 +31°C° 0 mm 1 mps 657 mmHg 36%
    12:00 +34°C° 0 mm 2 mps 656 mmHg 32%
    13:00 +35°C° 0 mm 2 mps 656 mmHg 28%
    14:00 +35°C° 0 mm 2 mps 655 mmHg 28%
    15:00 +35°C° 0 mm 2 mps 655 mmHg 28%
    16:00 +35°C° 0 mm 2 mps 654 mmHg 27%
    17:00 +31°C° 0.2 mm 2 mps 654 mmHg 36%
    18:00 +29°C° 0.2 mm 2 mps 654 mmHg 44%
    19:00 +26°C° 0.2 mm 1 mps 653 mmHg 53%
    20:00 +25°C° 1 mm 1 mps 653 mmHg 61%
    21:00 +23°C° 1 mm 1 mps 654 mmHg 70%
    22:00 +22°C° 1 mm 1 mps 654 mmHg 79%
    23:00 +21°C° 0 mm 1 mps 653 mmHg 79%

    22 January, Tuesday

    Time Temperature Precipitation Wind Pressure Humidity
    00:00 +21°C° 0 mm 1 mps 653 mmHg 80%
    01:00 +20°C° 0 mm 1 mps 653 mmHg 80%
    02:00 +20°C° 0 mm 1 mps 653 mmHg 81%
    03:00 +20°C° 0 mm 1 mps 652 mmHg 82%
    04:00 +19°C° 0 mm 1 mps 652 mmHg 82%
    05:00 +20°C° 0 mm 1 mps 653 mmHg 80%
    06:00 +20°C° 0 mm 1 mps 653 mmHg 78%
    07:00 +19°C° 0 mm 0 mps 654 mmHg 75%
    08:00 +23°C° 0 mm 1 mps 655 mmHg 66%
    09:00 +26°C° 0 mm 1 mps 655 mmHg 56%
    10:00 +28°C° 0 mm 1 mps 656 mmHg 46%
    11:00 +29°C° 0 mm 2 mps 655 mmHg 43%
    12:00 +30°C° 0 mm 2 mps 655 mmHg 39%
    13:00 +31°C° 0 mm 2 mps 654 mmHg 36%
    14:00 +31°C° 0 mm 2 mps 654 mmHg 35%
    15:00 +31°C° 0 mm 2 mps 653 mmHg 35%
    16:00 +31°C° 0 mm 1 mps 652 mmHg 35%
    17:00 +29°C° 0 mm 1 mps 652 mmHg 39%
    18:00 +28°C° 0 mm 1 mps 652 mmHg 42%
    19:00 +26°C° 0 mm 1 mps 652 mmHg 46%
    20:00 +25°C° 0 mm 1 mps 653 mmHg 50%
    21:00 +24°C° 0 mm 1 mps 653 mmHg 53%
    22:00 +23°C° 0 mm 1 mps 654 mmHg 57%
    23:00 +22°C° 0 mm 1 mps 653 mmHg 60%
    Show more